FW6330 Weather Reports


Display with metric or nautical units.
time (UTC)temp
F
wind
direction
speed
MPH
gust
MPH
rain 1hr
in
rain 24hr
in
rain mn
in
humidity
%
barometer
mb
20260505014544 36 65 0.0 1.0 0.00 0.00 0.00 93 1014.1
20260505013059 36 225 0.0 2.0 0.00 0.00 0.00 92 1014.3
20260505011540 36 13 0.0 1.0 0.00 0.00 0.00 93 1014.1
20260505010036 37 30 0.0 0.0 0.00 0.00 0.00 93 1013.9
20260505004532 37 148 0.0 0.0 0.00 0.00 0.00 93 1014.1
20260505003030 37 196 0.0 0.0 0.00 0.00 0.00 92 1014.1
20260505001523 37 131 0.0 0.0 0.00 0.00 0.00 92 1014.0
20260505000024 37 136 0.0 0.0 0.00 0.00 0.00 92 1013.9
20260504234513 38 43 0.0 1.0 0.00 0.00 0.00 92 1014.0
20260504233011 38 165 0.0 1.0 0.00 0.00 0.00 92 1014.1
20260504231505 37 44 0.0 1.0 0.00 0.00 0.00 93 1014.2
20260504230106 37 174 0.0 1.0 0.00 0.00 0.00 93 1014.3
20260504224557 36 135 0.0 0.0 0.00 0.00 0.00 94 1014.0
20260504223059 34 355 0.0 0.0 0.00 0.00 0.00 94 1014.0
20260504221544 33 231 0.0 0.0 0.00 0.00 0.00 93 1014.1
20260504220044 33 78 0.0 0.0 0.00 0.00 0.00 93 1014.2
20260504214542 33 131 0.0 0.0 0.00 0.00 0.00 93 1014.5
20260504213034 33 179 0.0 0.0 0.00 0.00 0.00 93 1014.5
20260504211534 33 300 0.0 0.0 0.00 0.00 0.00 92 1014.4
20260504210026 33 70 0.0 0.0 0.00 0.00 0.00 91 1013.9
20260504204527 35 179 0.0 0.0 0.00 0.00 0.00 90 1014.0
20260504203022 36 325 0.0 0.0 0.00 0.00 0.00 91 1014.0
20260504201515 37 29 0.0 0.0 0.00 0.00 0.00 91 1013.6
20260504200011 38 227 0.0 0.0 0.00 0.00 0.00 90 1013.1
20260504194507 38 177 0.0 2.0 0.00 0.00 0.00 90 1012.6
20260504193001 39 334 0.0 1.0 0.00 0.00 0.00 90 1012.7
20260504191604 39 108 0.0 0.0 0.00 0.00 0.00 91 1012.6
20260504190113 39 123 0.0 1.0 0.00 0.00 0.00 90 1012.4
20260504184603 39 282 0.0 1.0 0.00 0.00 0.00 90 1012.3
20260504183045 40 176 0.0 2.0 0.00 0.00 0.00 90 1012.4
20260504181540 40 260 0.0 1.0 0.00 0.00 0.00 91 1012.4
20260504180035 39 193 0.0 1.0 0.00 0.00 0.00 91 1012.2
20260504174536 40 263 0.0 1.0 0.00 0.00 0.00 89 1012.4
20260504173028 40 283 0.0 1.0 0.00 0.00 0.00 89 1012.2
20260504171522 39 162 0.0 1.0 0.00 0.00 0.00 91 1011.9
20260504110112 34 348 0.0 0.0 0.00 0.00 0.00 92 1010.6
20260504081514 38 155 0.0 1.0 0.00 0.00 0.00 87 1011.2
20260504050018 42 75 1.0 8.0 0.00 0.00 0.00 75 1011.4
20260504044514 41 172 0.0 0.0 0.00 0.00 0.00 78 1011.4
20260504043010 41 267 0.0 0.0 0.00 0.00 0.00 77 1011.0
20260504041504 41 132 0.0 0.0 0.00 0.00 0.00 76 1010.3
20260504034555 43 149 0.0 0.0 0.00 0.00 0.00 73 1009.7
20260504033054 43 198 0.0 2.0 0.00 0.00 0.00 67 1009.9
20260504031557 44 79 0.0 4.0 0.00 0.00 0.00 75 1009.8
20260504030046 43 98 1.0 3.0 0.00 0.00 0.00 81 1010.1
20260504024549 44 152 0.0 1.0 0.00 0.00 0.00 81 1010.0
20260504023034 44 288 0.0 0.0 0.00 0.00 0.00 80 1009.6
20260504021529 45 129 0.0 0.0 0.00 0.00 0.00 78 1009.1
20260504020025 45 83 0.0 1.0 0.00 0.00 0.00 77 1009.1